View from above orbital plane
|
View from above satellite
|
Ground track
|
The orbit data is extracted from the following two-line orbital elements,
1 21088U 91006B 21065.83700230 .00000120 00000-0 10572-3 0 9993
2 21088 82.9385 90.1527 0023919 115.1111 58.1765 13.77152223512323
Epoch (UTC): | 06 March 2021 20:05:16 |
Eccentricity: | 0.0023919 |
inclination: | 82.9385° |
perigee height: | 956 km |
apogee height: | 991 km |
right ascension of ascending node: | 90.1527° |
argument of perigee: | 115.1111° |
revolutions per day: | 13.77152223 |
mean anomaly at epoch: | 58.1765° |
orbit number at epoch: | 51232 |
The dashed part of the orbit path shows where the satellite is in the earth's shadow,
|
|